Location: Tamazert
(32.6352°N, 5.2072°W)
Time: 15:55:02
(UTC+00:00)

Vanguard 3 - Pass Details

Date: 11 October 2022
Orbit: 509 x 3255 km, 33.3° (Epoch: 08 December)

Event Time Altitude Azimuth Distance (km) Brightness Sun altitude
Rises 06:00:32 0° 246° (WSW) 3,125 - -5.3°
Exits shadow 06:01:05 - 245° (WSW) 2,886 9.4 -5.2°
Reaches altitude 10° 06:03:14 10° 242° (WSW) 1,978 8.7 -4.7°
Maximum altitude 06:07:22 55° 164° (SSE) 632 6.8 -3.8°
Drops below altitude 10° 06:10:57 10° 85° (E) 1,720 10.7 -3.1°
Sets 06:13:09 0° 81° (E) 2,665 11.7 -2.6°
